Wind_Speed
36 33 31 27 25 25 23 20 19 17 15 13 11 9 10 8 6 4 4 5 3 2 1 2 2 3 4 5 5 4 5 9 6 15 18 21 23 27 29 23 20 17 18
40 38 35 31 28 25 22 19 18 17 16 14 13 12 12 10 8 6 6 6 5 3 3 3 4 5 7 6 7 7 10 8 9 14 18 22 26 28 27 24 22 18 17
43 41 37 34 31 27 24 21 19 18 16 15 14 13 13 12 9 8 9 8 6 4 5 6 6 7 9 9 7 11 10 9 10 12 18 25 28 27 28 25 24 17 22
44 44 40 36 33 28 25 22 20 20 19 17 15 14 14 12 10 11 11 10 8 6 7 7 5 6 7 9 9 8 8 9 11 15 21 20 22 26 22 22 21 24 32
44 44 42 37 32 28 25 25 23 22 21 18 17 16 15 14 12 13 12 12 9 8 8 6 4 6 5 7 7 7 7 10 13 17 16 17 18 19 19 21 24 22 28
43 44 40 36 33 30 29 27 26 25 23 21 20 18 16 15 14 12 13 12 9 8 8 3 5 7 7 8 8 8 9 11 15 17 17 15 17 19 22 21 22 20 16
41 41 40 38 36 33 31 30 31 28 26 25 21 19 18 16 16 14 14 13 10 8 7 5 5 7 9 11 12 10 12 14 16 17 15 17 20 23 24 25 23 23 23
39 41 40 38 37 34 33 34 32 30 29 27 23 21 19 18 17 17 16 15 12 9 7 7 6 8 10 10 11 13 16 19 20 11 12 16 19 21 22 23 24 24 22
37 40 41 40 38 36 37 37 36 33 31 29 25 22 23 20 19 18 17 16 13 10 8 8 10 12 10 8 12 17 19 21 16 12 13 16 16 18 18 19 20 21 21
38 42 42 40 39 39 39 39 37 36 32 29 27 24 23 21 21 20 18 17 16 13 10 8 10 11 10 12 13 16 21 21 16 17 19 20 20 21 18 18 21 19 20
38 37 38 39 41 39 39 37 35 34 31 29 28 26 24 23 23 21 19 19 18 16 13 10 10 10 12 12 12 17 19 15 18 21 22 21 22 22 22 23 22 23 21
35 36 38 39 38 35 34 33 30 30 31 31 29 26 24 22 21 21 20 19 19 19 16 12 12 12 12 13 17 15 11 13 16 17 18 20 21 20 23 24 25 26 25
34 37 38 37 35 35 32 33 30 32 32 32 29 28 26 22 22 21 22 20 19 20 17 15 14 14 17 19 14 11 11 13 15 17 18 19 18 22 23 23 26 26 28
35 34 32 31 31 31 31 32 38 38 33 33 32 30 27 22 24 23 23 22 21 21 19 17 16 18 18 17 12 9 10 13 15 18 18 18 21 22 22 23 25 26 25
34 34 33 33 34 36 40 44 44 39 39 38 35 33 27 19 27 26 25 24 25 24 20 19 19 19 17 12 11 11 12 13 16 16 16 19 21 20 21 22 21 23 22
31 30 31 31 38 38 33 33 30 34 35 35 30 28 21 16 22 24 24 22 22 21 21 21 20 19 17 14 14 16 12 14 15 16 19 20 20 19 21 22 19 20 19
32 31 36 35 34 29 30 28 27 19 22 26 24 22 17 15 18 21 23 21 21 20 23 22 21 19 17 16 16 14 15 16 16 18 18 18 18 19 21 21 18 17 20
37 41 39 37 36 34 34 32 30 33 29 25 21 21 17 18 18 20 20 18 19 19 22 21 22 19 17 17 15 14 16 17 17 18 18 18 19 20 22 21 16 19 21
26 32 34 36 37 38 33 30 30 30 27 27 22 17 21 21 20 21 19 21 23 23 22 20 18 17 17 16 15 15 16 16 18 19 19 21 21 22 21 19 22 23 24
22 25 31 33 32 30 29 28 29 26 23 24 22 21 22 19 20 23 22 23 23 22 20 19 18 18 17 16 16 16 17 19 20 21 23 22 22 20 20 22 23 22 21
22 23 25 27 27 28 28 27 25 25 24 25 22 23 20 21 25 26 25 25 24 23 22 21 21 18 16 16 17 17 19 21 22 24 25 26 24 22 22 25 23 22 21
22 23 19 21 22 23 24 23 22 22 22 19 20 19 17 19 25 23 23 23 22 21 19 19 18 17 17 17 18 19 20 22 24 25 25 25 23 23 24 25 23 21 22
17 16 15 15 16 16 17 18 19 19 15 16 17 16 16 22 22 22 21 19 17 16 15 15 17 19 19 19 18 19 21 24 24 21 22 23 24 23 24 25 23 21 21
10 11 12 12 13 14 15 15 16 15 15 15 15 15 18 20 20 19 19 18 16 16 16 17 18 19 19 19 19 20 23 20 21 20 20 23 23 24 26 25 25 23 23
5 6 7 9 12 12 13 16 16 13 12 13 14 15 16 15 16 15 14 14 14 14 14 15 17 18 18 18 20 21 18 21 19 21 21 22 23 25 26 27 27 24 22
1 4 6 7 8 10 12 12 11 11 12 10 11 13 13 13 12 12 12 13 13 13 14 15 15 16 18 19 18 20 19 20 22 19 22 23 24 27 27 26 26 24 21
Wind_Direction
202 198 196 196 200 202 205 208 211 206 210 210 204 199 203 213 223 220 208 187 209 194 211 272 265 274 303 318 307 276 313 323 278 313 318 331 334 333 335 336 333 332 326
201 195 198 201 201 202 207 211 207 211 209 210 208 207 203 208 226 235 210 223 232 247 264 264 284 292 298 299 285 277 306 321 307 300 315 326 328 333 333 333 333 328 318
200 195 195 196 200 205 211 209 214 215 212 209 212 212 210 214 229 232 225 230 244 273 277 281 287 294 300 291 278 293 307 308 306 307 317 323 327 332 332 331 330 325 313
199 196 195 198 203 206 208 209 211 219 215 216 217 218 221 224 232 226 232 227 250 297 304 288 279 307 307 303 299 300 303 310 318 321 321 318 319 327 328 324 322 318 319
196 196 201 204 205 205 205 208 215 218 222 224 221 222 226 230 227 231 242 244 259 295 310 287 262 305 294 297 303 304 311 320 324 326 317 312 317 323 322 320 308 311 314
195 197 201 204 203 206 207 207 215 216 220 222 224 227 231 230 229 236 240 239 261 288 309 249 275 280 273 295 307 306 315 328 327 325 313 308 312 311 314 315 308 309 313
194 199 205 206 205 209 209 210 212 215 218 223 226 227 232 231 230 237 237 245 253 274 290 267 280 255 281 295 301 304 310 317 322 321 312 314 309 316 313 305 304 298 291
194 202 208 209 210 212 211 212 215 216 220 223 226 227 230 235 234 233 234 241 246 262 265 263 256 272 293 294 299 307 316 321 326 315 309 316 317 315 312 307 306 302 299
197 203 210 213 212 213 214 215 216 216 220 225 229 227 226 237 237 231 234 238 242 253 257 264 268 279 284 275 298 308 310 314 323 314 312 316 320 326 323 322 320 321 311
204 211 216 217 218 219 218 218 219 220 225 225 227 230 229 238 235 235 235 237 241 248 253 273 280 276 264 270 287 299 302 310 315 314 314 319 323 328 331 333 322 310 311
214 217 219 223 224 225 222 221 223 222 226 227 229 229 229 231 238 235 235 234 247 248 252 268 282 279 275 281 285 288 295 306 309 307 310 311 316 321 322 329 328 322 304
220 222 225 227 225 225 224 224 226 227 228 228 227 228 224 226 234 244 242 245 246 242 249 264 277 280 281 285 296 296 290 299 304 306 307 312 318 318 323 323 322 323 317
222 227 227 226 223 222 222 221 223 225 229 227 223 221 225 233 236 240 247 243 243 241 250 260 272 282 290 294 292 289 296 303 308 307 310 315 317 321 320 320 322 324 322
223 223 225 224 219 222 228 225 224 224 220 217 217 221 231 230 237 241 236 241 240 239 245 256 269 282 291 293 288 289 293 301 304 308 308 310 318 321 321 327 323 322 314
223 225 223 223 217 222 224 231 223 228 230 218 222 227 227 238 243 242 242 238 236 240 244 253 268 280 284 275 280 290 295 299 301 303 303 311 316 320 322 327 318 313 308
216 217 216 221 229 221 215 219 221 234 236 232 237 235 226 240 256 242 238 234 234 234 242 256 268 273 275 279 288 297 297 303 302 305 309 312 315 315 317 318 314 310 307
226 228 230 218 217 215 212 204 201 210 214 225 221 215 228 226 244 247 232 230 234 240 247 257 265 272 269 276 287 289 298 305 308 312 311 311 311 312 313 314 311 310 310
238 237 233 228 221 225 216 209 204 196 183 184 198 214 219 219 238 238 238 239 228 231 245 254 264 268 267 278 284 289 301 306 307 309 307 309 312 310 312 311 306 308 308
267 253 242 238 234 234 218 210 203 199 192 189 190 211 219 226 244 242 231 228 237 243 250 257 263 264 268 279 281 293 299 300 307 309 308 310 312 313 305 301 305 307 305
279 268 254 245 238 222 211 204 201 195 184 189 198 229 227 223 219 223 226 234 242 249 255 258 264 267 270 272 281 291 296 304 310 309 309 308 310 309 296 299 307 301 301
286 278 261 247 231 220 209 198 189 183 182 190 216 236 229 225 230 235 238 241 246 252 260 264 269 271 269 271 285 292 299 304 305 306 303 303 301 298 298 302 301 299 298
286 274 254 236 227 212 200 191 183 178 178 195 226 233 231 233 237 243 246 249 253 258 267 272 267 270 271 283 292 296 297 299 302 305 302 302 298 297 296 301 303 297 298
289 262 235 218 209 193 183 187 182 180 192 225 229 230 229 232 239 246 250 262 258 266 273 270 271 274 283 287 290 293 296 297 300 304 304 302 299 297 302 300 299 298 296
288 248 220 203 192 186 186 186 184 201 222 224 229 233 236 238 243 251 260 260 264 270 272 272 275 277 282 286 291 293 297 290 303 303 304 301 294 300 305 303 302 295 295
292 238 211 195 187 187 185 190 203 214 217 227 232 236 230 237 253 254 256 264 272 277 280 280 281 282 286 291 293 293 292 303 300 299 297 296 294 301 301 302 301 299 294
236 192 187 185 190 196 201 203 209 219 229 226 231 231 242 251 255 264 271 271 274 279 284 286 288 290 290 290 297 303 296 299 306 298 294 288 292 297 300 300 301 298 292
Height
851 854 859 862 865 867 869 871 873 873 876 877 879 880 881 883 884 885 885 885 885 886 887 887 887 887 886 886 886 886 885 884 883 879 878 875 872 870 866 863 860 857 854
843 848 853 857 860 863 866 869 871 872 873 875 876 877 878 880 882 883 883 884 884 884 884 884 885 884 883 883 882 882 881 880 879 876 874 872 870 866 863 860 857 854 851
837 841 846 851 854 858 861 864 868 870 871 872 873 875 876 877 879 880 880 881 881 881 881 881 881 881 880 879 879 878 878 877 875 873 870 868 865 862 858 855 853 850 848
831 836 840 844 847 851 855 861 862 867 867 868 869 871 872 873 875 876 877 877 878 878 878 877 877 877 876 876 875 874 874 873 871 870 867 864 862 859 856 853 848 846 840
824 829 833 839 843 847 851 853 857 861 864 866 866 867 869 870 871 873 874 874 875 875 874 873 874 873 873 872 871 870 870 869 867 866 864 861 858 855 854 851 847 843 839
818 823 829 834 838 840 843 846 852 854 859 861 862 863 865 867 868 869 870 870 871 871 871 871 871 870 870 869 868 868 867 865 864 862 860 858 855 853 850 847 844 841 835
813 819 823 826 830 833 836 839 843 847 852 855 857 859 860 862 864 865 866 866 866 867 867 867 867 867 867 866 865 864 863 862 861 859 856 855 852 849 847 843 840 836 832
808 812 817 821 825 828 831 833 837 841 844 848 851 853 855 857 859 861 862 862 862 863 862 862 863 864 863 862 860 859 858 857 855 854 853 851 848 846 843 839 835 831 827
803 805 809 813 817 821 823 826 829 833 837 840 844 847 849 852 854 856 857 858 858 859 859 858 859 860 860 859 857 854 853 851 850 849 848 847 844 842 838 835 830 827 821
796 799 804 808 810 812 815 818 823 826 830 835 837 840 844 847 849 851 852 854 855 855 855 854 855 855 856 855 853 851 848 846 845 844 842 841 839 836 834 831 827 823 819
791 796 799 801 803 807 810 814 819 823 827 830 833 836 838 841 843 846 846 846 848 850 849 849 850 850 851 850 849 847 845 843 841 839 837 835 833 830 828 825 822 819 814
787 790 793 796 800 805 809 813 818 821 823 825 827 831 833 835 839 841 842 842 843 844 844 844 844 845 846 845 843 841 840 839 838 836 833 830 828 825 822 819 815 812 808
780 782 785 789 793 796 801 805 811 814 816 819 822 826 828 831 833 836 838 837 838 838 839 839 839 840 840 839 837 836 836 835 833 831 828 825 823 820 817 813 809 805 800
773 776 781 786 790 794 798 798 799 799 805 807 812 817 820 823 827 828 830 832 833 833 834 834 834 835 835 833 832 832 831 830 828 826 823 820 818 815 811 808 803 798 793
767 769 772 778 779 783 782 787 786 788 793 798 802 808 813 816 819 822 823 824 826 827 829 829 828 829 829 828 827 826 826 825 823 821 818 815 812 809 806 803 799 795 791
762 764 767 770 773 773 776 779 782 784 787 792 796 800 806 809 814 816 817 819 821 822 823 822 822 823 822 822 822 821 820 819 818 816 813 810 807 803 800 797 794 791 786
758 759 760 758 761 767 768 771 776 780 784 789 792 794 799 803 808 810 811 813 815 817 815 815 815 816 816 817 817 816 814 814 812 810 807 804 801 798 796 792 789 786 782
748 747 748 749 753 757 760 762 767 770 774 781 786 789 792 797 801 805 806 808 810 810 809 809 809 810 811 811 811 810 809 808 806 804 801 799 796 793 790 787 784 781 777
746 745 745 744 745 747 751 755 760 764 769 774 781 786 788 792 795 799 800 801 802 803 804 804 804 805 805 805 805 804 803 802 800 798 796 793 791 788 784 781 779 776 772
741 739 739 739 739 742 746 750 754 759 764 769 774 778 783 788 789 791 793 795 796 797 798 799 799 800 800 800 800 799 798 796 794 792 789 787 784 782 779 776 774 770 766
736 734 732 732 734 736 740 745 748 752 757 764 769 773 777 781 783 785 787 789 790 792 792 793 793 794 795 794 794 793 791 789 787 785 783 780 778 775 773 771 767 764 761
731 731 729 728 730 732 737 741 745 750 754 761 765 769 773 776 778 780 782 784 786 787 787 787 788 788 788 788 787 786 784 783 781 779 776 773 771 769 766 764 761 757 754
727 728 728 728 730 734 739 743 746 750 754 758 762 766 769 771 774 776 778 780 781 782 783 783 782 782 782 782 781 780 778 776 774 772 770 767 764 761 759 757 754 750 747
727 728 729 730 732 736 739 744 747 750 753 756 760 763 765 768 770 772 774 776 777 778 778 778 777 777 776 776 775 774 772 770 768 766 764 760 758 755 753 750 747 744 741
728 730 731 733 735 737 740 743 746 749 752 755 758 760 763 766 768 769 771 772 772 772 772 772 772 771 771 770 768 767 765 764 761 759 756 754 751 749 746 743 740 737 735
730 732 733 735 737 739 742 744 746 749 751 753 756 759 761 763 765 766 767 768 768 767 767 767 766 766 765 763 762 760 758 757 754 752 750 747 744 742 739 736 733 731 728